Regional Weather Roundup
Issued by NWS Cleveland, OH

Home | Current Version | Previous Version | Graphics & Text | Print | Product List | Glossary On
Versions: 1 2 3 4 5 6 7 8 9 10 11 12 13 14 15 16 17 18 19 20 21 22 23 24 25 26 27 28 29 30 31 32 33 34 35 36 37 38 39 40 41 42 43 44 45 46 47 48 49 50
000
ASUS41 KCLE 251910
RWRCLE
OHIO REGIONAL WEATHER ROUNDUP
NATIONAL WEATHER SERVICE WILMINGTON, OH
300 PM EDT WED MAY 25 2016

NOTE: "FAIR" INDICATES FEW OR NO CLOUDS BELOW 12,000 FEET WITH NO
SIGNIFICANT WEATHER AND/OR OBSTRUCTIONS TO VISIBILITY.

OHZ001>008-015>018-024>027-034-035-043-044-252000-
   NORTHWEST OHIO

CITY           SKY/WX    TMP DP  RH WIND       PRES   REMARKS
DEFIANCE       FAIR      82  58  43 S16G23    30.05F
FINDLAY        PTSUNNY   79  55  43 S12G21    30.08F
TOLEDO EXPRESS PTSUNNY   80  58  46 S13       30.06F
TOLEDO EXEC    PTSUNNY   79  58  48 S12       30.08S
LIMA           PTSUNNY   77  58  51 S9        30.08F
$$

OHZ009>014-019>023-028>033-038-089-252000-
   NORTHEAST OHIO

CITY           SKY/WX    TMP DP  RH WIND       PRES   REMARKS
CLE-HOPKINS    FAIR      85  56  37 SW14G21   30.11F
CLE-LAKEFRONT  FAIR      78  58  49 N5        30.08F HAZE
CUY CO. ARPT   MOSUNNY   86  54  32 W9        30.10F
LORAIN-ELYRIA  PTSUNNY   82  55  39 SW12G18   30.09F
ASHTABULA      FAIR      83  52  34 N12       30.11F
AKRON-CANTON   FAIR      82  52  35 SW10G20   30.14F
WOOSTER        PTSUNNY   81  55  40 S13G22    30.13F
MANSFIELD      CLOUDY    81  57  43 S12       30.13F
YOUNGSTOWN     FAIR      81  48  31 SW10G21   30.13F
$$

OHZ042-051>053-060>062-070>072-077>081-252000-
  SOUTHWEST OHIO

CITY           SKY/WX    TMP DP  RH WIND       PRES   REMARKS
CINC-COVINGTON PTSUNNY   79  63  57 SW8       30.11F
CINC-LUNKEN    FAIR      77  64  64 S10       30.10F
HAMILTON       FAIR      82  62  50 S8        30.10F
DAYTON         PTSUNNY   81  60  48 S14       30.10F
WRIGHT-PAT AFB MOSUNNY   81  62  51 S14G20    30.09F
DAYTON GENERAL FAIR      81  60  48 S16       30.09F
WILMINGTON     FAIR      77  59  53 S10       30.12F
$$

OHZ036-037-039>041-045>050-054>059-063>069-073>076-082>088-252000-
  CENTRAL AND SOUTHEAST OHIO

CITY           SKY/WX    TMP DP  RH WIND       PRES   REMARKS
COLUMBUS       CLOUDY    76  56  49 SW6       30.13F
OSU AIRPORT    CLOUDY    76  56  49 S7        30.13F
BOLTON FIELD   CLOUDY    75  61  60 S6        30.14F
RICKENBACK AFB CLOUDY    76  58  52 SW7       30.13F
NEWARK         CLOUDY    80  55  42 SW8       30.13F
MARION         PTSUNNY   78  56  46 SW15G21   30.12F
LANCASTER      CLOUDY    79  57  46 S6        30.15S
ZANESVILLE     PTSUNNY   82  55  39 SW10      30.15S
NEW PHILLY     FAIR      85  49  28 VRB7      30.14F
$$




USA.gov is the U.S. government's official web portal to all federal, state and local government web resources and services.